Time,TemperatureF,DewpointF,PressureIn,WindDirection,WindDirectionDegrees,WindSpeedMPH,WindSpeedGustMPH,Humidity,HourlyPrecipIn,Conditions,Clouds,dailyrainin,SolarRadiationWatts/m^2,SoftwareType,DateUTC
2013-02-28 00:01:00,45.0,28.0,-100.00,SSW,211,4.0,7.0,52,0.00,,,0.00,0.000000,,2013-02-28 08:01:00,
2013-02-28 00:32:00,45.0,28.0,-100.00,SSW,213,4.0,8.0,52,0.00,,,0.00,0.000000,,2013-02-28 08:32:00,
2013-02-28 00:42:00,45.0,28.0,-100.00,SSW,213,4.0,8.0,52,0.00,,,0.00,0.000000,,2013-02-28 08:42:00,
2013-02-28 00:53:00,45.0,28.0,-100.00,SSW,213,4.0,8.0,52,0.00,,,0.00,0.000000,,2013-02-28 08:53:00,
2013-02-28 01:02:00,45.0,28.0,-100.00,SSW,213,4.0,8.0,52,0.00,,,0.00,0.000000,,2013-02-28 09:02:00,
2013-02-28 01:32:00,44.0,29.0,-100.00,SW,215,3.0,8.0,55,0.00,,,0.00,0.000000,,2013-02-28 09:32:00,
2013-02-28 01:42:00,44.0,29.0,-100.00,SW,215,3.0,8.0,55,0.00,,,0.00,0.000000,,2013-02-28 09:42:00,
2013-02-28 01:52:00,44.0,29.0,-100.00,SW,215,3.0,8.0,55,0.00,,,0.00,0.000000,,2013-02-28 09:52:00,
2013-02-28 02:01:00,44.0,29.0,-100.00,SW,215,3.0,8.0,55,0.00,,,0.00,0.000000,,2013-02-28 10:01:00,
2013-02-28 02:32:00,42.0,28.0,-100.00,SSW,211,4.0,8.0,58,0.00,,,-99.99,0.000000,,2013-02-28 10:32:00,
2013-02-28 02:42:00,42.0,28.0,-100.00,SSW,211,4.0,8.0,58,0.00,,,-99.99,0.000000,,2013-02-28 10:42:00,
2013-02-28 02:52:00,42.0,28.0,-100.00,SSW,211,4.0,8.0,58,0.00,,,-99.99,0.000000,,2013-02-28 10:52:00,
2013-02-28 03:01:00,42.0,28.0,-100.00,SSW,211,4.0,8.0,58,0.00,,,-99.99,0.000000,,2013-02-28 11:01:00,
2013-02-28 03:32:00,41.0,29.0,-100.00,SSW,212,3.0,7.0,61,0.00,,,0.00,0.000000,,2013-02-28 11:32:00,
2013-02-28 03:42:00,41.0,29.0,-100.00,SSW,212,3.0,7.0,61,0.00,,,0.00,0.000000,,2013-02-28 11:42:00,
2013-02-28 03:52:00,41.0,29.0,-100.00,SSW,212,3.0,7.0,61,0.00,,,0.00,0.000000,,2013-02-28 11:52:00,
2013-02-28 04:01:00,41.0,29.0,-100.00,SSW,212,3.0,7.0,61,0.00,,,0.00,0.000000,,2013-02-28 12:01:00,
2013-02-28 04:32:00,42.0,30.0,-100.00,SSW,206,4.0,9.0,62,0.00,,,0.00,0.000000,,2013-02-28 12:32:00,
2013-02-28 04:42:00,42.0,30.0,-100.00,SSW,206,4.0,9.0,62,0.00,,,0.00,0.000000,,2013-02-28 12:42:00,
2013-02-28 04:52:00,42.0,30.0,-100.00,SSW,206,4.0,9.0,62,0.00,,,0.00,0.000000,,2013-02-28 12:52:00,
2013-02-28 05:01:00,42.0,30.0,-100.00,SSW,206,4.0,9.0,62,0.00,,,0.00,0.000000,,2013-02-28 13:01:00,
2013-02-28 05:32:00,41.0,31.0,-100.00,SW,218,3.0,9.0,66,0.00,,,0.00,0.000000,,2013-02-28 13:32:00,
2013-02-28 05:42:00,41.0,31.0,-100.00,SW,218,3.0,9.0,66,0.00,,,0.00,0.000000,,2013-02-28 13:42:00,
2013-02-28 05:52:00,41.0,31.0,-100.00,SW,218,3.0,9.0,66,0.00,,,0.00,0.000000,,2013-02-28 13:52:00,
2013-02-28 06:01:00,41.0,31.0,-100.00,SW,218,3.0,9.0,66,0.00,,,0.00,0.000000,,2013-02-28 14:01:00,
2013-02-28 06:22:00,40.0,31.0,-100.00,SW,216,4.0,7.0,69,0.00,,,0.00,0.000000,,2013-02-28 14:22:00,
2013-02-28 06:32:00,40.0,31.0,-100.00,SW,216,4.0,7.0,69,0.00,,,0.00,0.000000,,2013-02-28 14:32:00,
2013-02-28 06:42:00,40.0,31.0,-100.00,SW,216,4.0,7.0,69,0.00,,,0.00,0.000000,,2013-02-28 14:42:00,
2013-02-28 06:52:00,40.0,31.0,-100.00,SW,216,4.0,7.0,69,0.00,,,0.00,0.000000,,2013-02-28 14:52:00,
2013-02-28 07:01:00,40.0,31.0,-100.00,SW,216,4.0,7.0,69,0.00,,,0.00,0.000000,,2013-02-28 15:01:00,
2013-02-28 07:32:00,41.0,32.0,-100.00,SSW,204,4.0,9.0,70,0.00,,,0.00,4.000000,,2013-02-28 15:32:00,
2013-02-28 07:42:00,41.0,32.0,-100.00,SSW,204,4.0,9.0,70,0.00,,,0.00,4.000000,,2013-02-28 15:42:00,
2013-02-28 07:52:00,41.0,32.0,-100.00,SSW,204,4.0,9.0,70,0.00,,,0.00,4.000000,,2013-02-28 15:52:00,
2013-02-28 08:01:00,41.0,32.0,-100.00,SSW,204,4.0,9.0,70,0.00,,,0.00,4.000000,,2013-02-28 16:01:00,
2013-02-28 08:22:00,47.0,34.0,-100.00,SSW,204,3.0,7.0,61,0.00,,,0.00,137.000000,,2013-02-28 16:22:00,
2013-02-28 08:32:00,47.0,34.0,-100.00,SSW,204,3.0,7.0,61,0.00,,,0.00,137.000000,,2013-02-28 16:32:00,
2013-02-28 08:42:00,47.0,34.0,-100.00,SSW,204,3.0,7.0,61,0.00,,,0.00,137.000000,,2013-02-28 16:42:00,
2013-02-28 08:52:00,47.0,34.0,-100.00,SSW,204,3.0,7.0,61,0.00,,,0.00,137.000000,,2013-02-28 16:52:00,
2013-02-28 09:01:00,47.0,34.0,-100.00,SSW,204,3.0,7.0,61,0.00,,,0.00,137.000000,,2013-02-28 17:01:00,
2013-02-28 09:32:00,54.0,36.0,-100.00,SSW,206,4.0,9.0,50,0.00,,,0.00,333.000000,,2013-02-28 17:32:00,
2013-02-28 09:42:00,54.0,36.0,-100.00,SSW,206,4.0,9.0,50,0.00,,,0.00,333.000000,,2013-02-28 17:42:00,
2013-02-28 09:52:00,54.0,36.0,-100.00,SSW,206,4.0,9.0,50,0.00,,,0.00,333.000000,,2013-02-28 17:52:00,
2013-02-28 10:01:00,54.0,36.0,-100.00,SSW,206,4.0,9.0,50,0.00,,,0.00,333.000000,,2013-02-28 18:01:00,
2013-02-28 10:32:00,65.0,40.0,-100.00,NNW,339,2.0,8.0,40,0.00,,,0.00,514.000000,,2013-02-28 18:32:00,
2013-02-28 10:52:00,65.0,40.0,-100.00,NNW,339,2.0,8.0,40,0.00,,,0.00,514.000000,,2013-02-28 18:52:00,
2013-02-28 11:01:00,65.0,40.0,-100.00,NNW,339,2.0,8.0,40,0.00,,,0.00,514.000000,,2013-02-28 19:01:00,
2013-02-28 11:32:00,67.0,38.0,-100.00,East,91,7.0,12.0,34,0.00,,,0.00,654.000000,,2013-02-28 19:32:00,
2013-02-28 11:42:00,67.0,38.0,-100.00,East,91,7.0,12.0,34,0.00,,,0.00,654.000000,,2013-02-28 19:42:00,
2013-02-28 11:52:00,67.0,38.0,-100.00,East,91,7.0,12.0,34,0.00,,,0.00,654.000000,,2013-02-28 19:52:00,
2013-02-28 12:01:00,67.0,38.0,-100.00,East,91,7.0,12.0,34,0.00,,,0.00,654.000000,,2013-02-28 20:01:00,
2013-02-28 12:22:00,70.0,36.0,-100.00,East,85,7.0,13.0,29,0.00,,,0.00,681.000000,,2013-02-28 20:22:00,
2013-02-28 12:32:00,70.0,36.0,-100.00,East,85,7.0,13.0,29,0.00,,,0.00,681.000000,,2013-02-28 20:32:00,
2013-02-28 12:42:00,70.0,36.0,-100.00,East,85,7.0,13.0,29,0.00,,,0.00,681.000000,,2013-02-28 20:42:00,
2013-02-28 12:52:00,70.0,36.0,-100.00,East,85,7.0,13.0,29,0.00,,,0.00,681.000000,,2013-02-28 20:52:00,
2013-02-28 13:01:00,70.0,36.0,-100.00,East,85,7.0,13.0,29,0.00,,,0.00,681.000000,,2013-02-28 21:01:00,
2013-02-28 13:32:00,72.0,36.0,-100.00,East,93,7.0,15.0,27,0.00,,,0.00,755.000000,,2013-02-28 21:32:00,
2013-02-28 13:42:00,72.0,36.0,-100.00,East,93,7.0,15.0,27,0.00,,,0.00,755.000000,,2013-02-28 21:42:00,
2013-02-28 13:52:00,72.0,36.0,-100.00,East,93,7.0,15.0,27,0.00,,,0.00,755.000000,,2013-02-28 21:52:00,
2013-02-28 14:01:00,72.0,36.0,-100.00,East,93,7.0,15.0,27,0.00,,,0.00,755.000000,,2013-02-28 22:01:00,
2013-02-28 14:22:00,73.0,38.0,-100.00,East,85,5.0,14.0,28,0.00,,,0.00,711.000000,,2013-02-28 22:22:00,
2013-02-28 14:32:00,73.0,38.0,-100.00,East,85,5.0,14.0,28,0.00,,,0.00,711.000000,,2013-02-28 22:32:00,
2013-02-28 14:42:00,73.0,38.0,-100.00,East,85,5.0,14.0,28,0.00,,,0.00,711.000000,,2013-02-28 22:42:00,
2013-02-28 14:52:00,73.0,38.0,-100.00,East,85,5.0,14.0,28,0.00,,,0.00,711.000000,,2013-02-28 22:52:00,
2013-02-28 15:01:00,73.0,38.0,-100.00,East,85,5.0,14.0,28,0.00,,,0.00,711.000000,,2013-02-28 23:01:00,
2013-02-28 15:32:00,74.0,39.0,-100.00,East,85,5.0,13.0,28,0.00,,,0.00,606.000000,,2013-02-28 23:32:00,
2013-02-28 15:42:00,74.0,39.0,-100.00,East,85,5.0,13.0,28,0.00,,,0.00,606.000000,,2013-02-28 23:42:00,
2013-02-28 15:52:00,74.0,39.0,-100.00,East,85,5.0,13.0,28,0.00,,,0.00,606.000000,,2013-02-28 23:52:00,
2013-02-28 16:01:00,74.0,39.0,-100.00,East,85,5.0,13.0,28,0.00,,,0.00,606.000000,,2013-03-01 00:01:00,
2013-02-28 16:22:00,75.0,42.0,-100.00,ENE,63,4.0,13.0,31,0.00,,,0.00,439.000000,,2013-03-01 00:22:00,
2013-02-28 16:32:00,75.0,42.0,-100.00,ENE,63,4.0,13.0,31,0.00,,,0.00,439.000000,,2013-03-01 00:32:00,
2013-02-28 16:42:00,75.0,42.0,-100.00,ENE,63,4.0,13.0,31,0.00,,,0.00,439.000000,,2013-03-01 00:42:00,
2013-02-28 16:52:00,75.0,42.0,-100.00,ENE,63,4.0,13.0,31,0.00,,,0.00,439.000000,,2013-03-01 00:52:00,
2013-02-28 17:01:00,75.0,42.0,-100.00,ENE,63,4.0,13.0,31,0.00,,,0.00,439.000000,,2013-03-01 01:01:00,
2013-02-28 17:32:00,71.0,40.0,-100.00,NW,315,4.0,13.0,33,-99.99,,,0.00,225.000000,,2013-03-01 01:32:00,
2013-02-28 17:42:00,71.0,40.0,-100.00,NW,315,4.0,13.0,33,-99.99,,,0.00,225.000000,,2013-03-01 01:42:00,
2013-02-28 17:52:00,71.0,40.0,-100.00,NW,315,4.0,13.0,33,-99.99,,,0.00,225.000000,,2013-03-01 01:52:00,
2013-02-28 18:01:00,71.0,40.0,-100.00,NW,315,4.0,13.0,33,-99.99,,,0.00,225.000000,,2013-03-01 02:01:00,
2013-02-28 18:22:00,62.0,43.0,-100.00,ENE,73,1.0,8.0,49,0.00,,,0.00,13.000000,,2013-03-01 02:22:00,
2013-02-28 18:32:00,62.0,43.0,-100.00,ENE,73,1.0,8.0,49,0.00,,,0.00,13.000000,,2013-03-01 02:32:00,
2013-02-28 18:42:00,62.0,43.0,-100.00,ENE,73,1.0,8.0,49,0.00,,,0.00,13.000000,,2013-03-01 02:42:00,
2013-02-28 18:52:00,62.0,43.0,-100.00,ENE,73,1.0,8.0,49,0.00,,,0.00,13.000000,,2013-03-01 02:52:00,
2013-02-28 19:01:00,62.0,43.0,-100.00,ENE,73,1.0,8.0,49,0.00,,,0.00,13.000000,,2013-03-01 03:01:00,
2013-02-28 19:32:00,57.0,43.0,-100.00,SSW,210,1.0,7.0,59,0.00,,,0.00,0.000000,,2013-03-01 03:32:00,
2013-02-28 19:42:00,57.0,43.0,-100.00,SSW,210,1.0,7.0,59,0.00,,,0.00,0.000000,,2013-03-01 03:42:00,
2013-02-28 19:52:00,57.0,43.0,-100.00,SSW,210,1.0,7.0,59,0.00,,,0.00,0.000000,,2013-03-01 03:52:00,
2013-02-28 20:01:00,57.0,43.0,-100.00,SSW,210,1.0,7.0,59,0.00,,,0.00,0.000000,,2013-03-01 04:01:00,
2013-02-28 20:42:00,53.0,43.0,-100.00,WSW,250,2.0,3.0,70,0.00,,,0.00,0.000000,,2013-03-01 04:42:00,
2013-02-28 20:52:00,53.0,43.0,-100.00,WSW,250,2.0,3.0,70,0.00,,,0.00,0.000000,,2013-03-01 04:52:00,
2013-02-28 21:01:00,53.0,43.0,-100.00,WSW,250,2.0,3.0,70,0.00,,,0.00,0.000000,,2013-03-01 05:01:00,
2013-02-28 21:33:00,50.0,43.0,-100.00,SW,234,0.0,3.0,77,0.00,,,0.00,0.000000,,2013-03-01 05:33:00,
2013-02-28 22:01:00,50.0,43.0,-100.00,SW,234,0.0,3.0,77,0.00,,,0.00,0.000000,,2013-03-01 06:01:00,
2013-02-28 22:32:00,48.0,42.0,-100.00,WSW,247,1.0,4.0,81,0.00,,,0.00,0.000000,,2013-03-01 06:32:00,
2013-02-28 22:42:00,48.0,42.0,-100.00,WSW,247,1.0,4.0,81,0.00,,,0.00,0.000000,,2013-03-01 06:42:00,
2013-02-28 22:52:00,48.0,42.0,-100.00,WSW,247,1.0,4.0,81,0.00,,,0.00,0.000000,,2013-03-01 06:52:00,
2013-02-28 23:32:00,47.0,41.0,-100.00,WSW,237,2.0,5.0,81,0.00,,,0.00,0.000000,,2013-03-01 07:32:00,